"Timestamp","TZ","WindDir_Mean (deg)","WindSpd_Mean (km/h)","WindSpd_Min (km/h)","WindSpd_Max (km/h)","Temp_Mean (deg)","RH_Mean (%)","MSLP_Mean (hPa)","Rain_Acc (mm)","Rain_Intensity (mm/h)","Hail_Acc (hits/cm2)","Hail_Intensity (hits/cm2hr)","Solar_Mean (W/m2)"
2021/05/13 00:00:00.007,n,156,1.08,0,1.8,17.1,85.8,1015.62,0,0,0,0,0.026131
2021/05/13 00:01:00.000,n,191,1.8,1.44,1.8,17.1,85.8,1015.62,0,0,0,0,0.032272
2021/05/13 00:02:00.001,n,269,2.88,2.52,3.24,17.1,85.8,1015.52,0,0,0,0,0.032272
2021/05/13 00:03:00.000,n,176,1.08,0.36,1.44,17.2,85.9,1015.52,0,0,0,0,0.031357
2021/05/13 00:04:00.000,n,234,1.44,0.72,2.16,17.2,85.9,1015.52,0,0,0,0,0.02964
2021/05/13 00:05:00.000,n,274,5.76,5.04,6.12,17.2,85.9,1015.52,0,0,0,0,0.032272
2021/05/13 00:06:00.007,n,235,2.88,2.52,2.88,17.2,85.6,1015.52,0,0,0,0,0.030479
2021/05/13 00:07:00.004,n,257,2.52,1.8,2.88,17.2,85.5,1015.52,0,0,0,0,0.034866
2021/05/13 00:08:00.001,n,234,2.88,2.52,3.24,17.1,85.5,1015.52,0,0,0,0,0.030479
2021/05/13 00:09:00.000,n,302,2.16,1.44,4.32,17.1,85.6,1015.52,0,0,0,0,0.031357
2021/05/13 00:10:00.000,n,130,1.8,1.08,2.16,17.2,85.8,1015.52,0,0,0,0,0.031357
2021/05/13 00:11:00.000,n,179,2.52,2.52,2.88,17.2,85.7,1015.52,0,0,0,0,0.031357
2021/05/13 00:12:00.000,n,172,2.52,1.8,3.24,17.2,85.6,1015.52,0,0,0,0,0.02964
2021/05/13 00:13:00.005,n,176,3.96,3.6,5.4,17.2,85.6,1015.52,0,0,0,0,0.032272
2021/05/13 00:14:00.002,n,124,1.8,1.44,2.52,17.2,85.5,1015.42,0,0,0,0,0.034866
2021/05/13 00:15:00.000,n,257,0.72,0.72,0.72,17.2,85.5,1015.42,0,0,0,0,0.034866
2021/05/13 00:16:00.012,n,188,1.08,0.72,1.8,17.2,85.5,1015.42,0,0,0,0,0.031357
2021/05/13 00:17:00.009,n,85,1.8,1.44,2.16,17.2,85.5,1015.42,0,0,0,0,0.027885
2021/05/13 00:18:00.006,n,143,2.88,2.52,3.24,17.2,85.5,1015.42,0,0,0,0,0.032272
2021/05/13 00:19:00.000,n,144,1.8,1.8,1.8,17.2,85.5,1015.52,0,0,0,0,0.031357
2021/05/13 00:20:00.000,n,143,1.08,0.72,1.08,17.2,85.5,1015.52,0,0,0,0,0.031357
2021/05/13 00:21:00.000,n,122,1.08,0.72,1.8,17.2,85.6,1015.52,0,0,0,0,0.033989
2021/05/13 00:22:00.000,n,176,2.16,1.8,2.16,17.2,85.7,1015.52,0,0,0,0,0.032272
2021/05/13 00:23:00.000,n,168,2.16,1.8,3.24,17.2,85.8,1015.62,0,0,0,0,0.030479
2021/05/13 00:24:00.006,n,192,1.08,0.36,1.08,17.2,85.7,1015.62,0,0,0,0,0.031357
2021/05/13 00:25:00.004,n,169,1.44,0.72,2.16,17.1,85.7,1015.62,0,0,0,0,0.031357
2021/05/13 00:26:00.001,n,109,0.36,0.36,0.72,17.1,85.8,1015.62,0,0,0,0,0.033112
2021/05/13 00:27:00.015,n,196,1.8,1.8,2.16,17.1,85.8,1015.62,0,0,0,0,0.035706
2021/05/13 00:28:00.000,n,197,1.44,1.08,1.8,17.2,86,1015.62,0,0,0,0,0.03746
2021/05/13 00:29:00.000,n,265,2.88,2.52,3.24,17.2,86,1015.62,0,0,0,0,0.02964
2021/05/13 00:30:00.000,n,117,1.44,1.08,1.8,17.2,86,1015.62,0,0,0,0,0.033989
2021/05/13 00:31:00.005,n,139,2.52,2.16,3.24,17.2,86,1015.52,0,0,0,0,0.032272
2021/05/13 00:32:00.002,n,196,0.36,0.36,0.72,17.2,85.9,1015.52,0,0,0,0,0.034866
2021/05/13 00:33:00.000,n,162,3.24,3.24,3.6,17.2,85.9,1015.62,0,0,0,0,0.027008
2021/05/13 00:34:00.012,n,240,1.44,1.08,1.44,17.2,85.9,1015.62,0,0,0,0,0.032272
2021/05/13 00:35:00.009,n,146,1.8,1.44,1.8,17.2,85.8,1015.62,0,0,0,0,0.031357
2021/05/13 00:36:00.006,n,112,3.24,2.88,3.24,17.1,85.8,1015.62,0,0,0,0,0.033989
2021/05/13 00:37:00.000,n,158,1.08,0.72,1.44,17.1,85.8,1015.62,0,0,0,0,0.034866
2021/05/13 00:38:00.000,n,157,1.08,0.36,1.8,17.1,85.8,1015.62,0,0,0,0,0.034866
2021/05/13 00:39:00.000,n,140,3.6,3.6,3.96,17.1,85.9,1015.62,0,0,0,0,0.032272
2021/05/13 00:40:00.000,n,129,1.8,1.8,2.16,17.1,85.8,1015.62,0,0,0,0,0.033989
2021/05/13 00:41:00.000,n,131,1.08,0.72,1.8,17.1,85.9,1015.52,0,0,0,0,0.027885
2021/05/13 00:42:00.006,n,190,1.8,1.44,2.16,17.1,85.9,1015.52,0,0,0,0,0.031357
2021/05/13 00:43:00.003,n,167,2.16,1.44,2.52,17.1,85.9,1015.52,0,0,0,0,0.033989
2021/05/13 00:44:00.000,n,165,2.16,1.8,2.88,17.1,85.9,1015.42,0,0,0,0,0.035706
2021/05/13 00:45:00.014,n,189,4.32,3.96,4.68,17.1,85.9,1015.42,0,0,0,0,0.031357
2021/05/13 00:46:00.000,n,187,4.68,3.96,4.68,17.1,86,1015.42,0,0,0,0,0.035706
2021/05/13 00:47:00.000,n,169,1.8,1.44,1.8,17.1,86,1015.42,0,0,0,0,0.033112
2021/05/13 00:48:00.000,n,253,2.16,1.8,2.88,17.1,86.1,1015.42,0,0,0,0,0.033989
2021/05/13 00:49:00.004,n,272,3.6,2.52,5.04,17.1,86.4,1015.42,0,0,0,0,0.036621
2021/05/13 00:50:00.002,n,264,3.96,3.6,4.32,17.1,86.4,1015.42,0,0,0,0,0.033989
2021/05/13 00:51:00.000,n,280,1.8,1.44,1.8,17.1,86.2,1015.42,0,0,0,0,0.036621
2021/05/13 00:52:00.012,n,263,4.32,3.96,5.04,17.1,86.1,1015.42,0,0,0,0,0.038338
2021/05/13 00:53:00.009,n,273,3.6,2.88,4.32,17.1,86,1015.42,0,0,0,0,0.035706
2021/05/13 00:54:00.006,n,287,4.68,4.32,5.04,17.1,86,1015.42,0,0,0,0,0.03746
2021/05/13 00:55:00.000,n,260,3.24,2.88,3.96,17.1,86,1015.42,0,0,0,0,0.033989
2021/05/13 00:56:00.000,n,269,3.6,3.24,3.96,17.1,85.9,1015.42,0,0,0,0,0.038338
2021/05/13 00:57:00.000,n,279,4.68,3.96,6.12,17.1,85.9,1015.42,0,0,0,0,0.03746
2021/05/13 00:58:00.000,n,253,2.88,2.52,3.24,17.1,86,1015.42,0,0,0,0,0.038338
2021/05/13 00:59:00.007,n,255,1.08,0.72,1.44,17,86.1,1015.42,0,0,0,0,0.034866
2021/05/13 01:00:00.004,n,270,2.52,1.8,2.88,17.1,86.4,1015.42,0,0,0,0,0.039215
2021/05/13 01:01:00.000,n,294,1.44,1.08,2.16,17.1,86.2,1015.42,0,0,0,0,0.035706
2021/05/13 01:02:00.014,n,228,2.88,2.16,3.6,17.1,86.1,1015.32,0,0,0,0,0.034866
2021/05/13 01:03:00.010,n,288,4.68,3.96,5.76,17.1,86.1,1015.32,0,0,0,0,0.034866
2021/05/13 01:04:00.000,n,277,5.76,5.04,6.48,17.1,85.9,1015.32,0,0,0,0,0.035706
2021/05/13 01:05:00.000,n,277,4.32,3.96,4.68,17.1,85.9,1015.32,0,0,0,0,0.034866
2021/05/13 01:06:00.000,n,204,3.24,2.88,3.6,17.1,86.1,1015.32,0,0,0,0,0.033989
2021/05/13 01:07:00.000,n,43,0.72,0.36,1.08,17.1,86.3,1015.32,0,0,0,0,0.033989
2021/05/13 01:08:00.000,n,231,2.52,1.08,3.6,17.1,86.2,1015.32,0,0,0,0,0.033989
2021/05/13 01:09:00.008,n,346,1.44,1.08,1.8,17.1,86.3,1015.32,0,0,0,0,0.034866
2021/05/13 01:10:00.005,n,85,1.8,1.08,2.16,17.1,86.3,1015.32,0,0,0,0,0.038338
2021/05/13 01:11:00.004,n,286,3.24,2.88,3.6,17.1,86.2,1015.32,0,0,0,0,0.035706
2021/05/13 01:12:00.001,n,279,3.6,2.52,5.04,17.1,86.3,1015.32,0,0,0,0,0.038338
2021/05/13 01:13:00.000,n,234,2.88,2.52,2.88,17.1,86.3,1015.32,0,0,0,0,0.033112
2021/05/13 01:14:00.000,n,165,1.08,0.72,1.44,17.1,86.1,1015.32,0,0,0,0,0.035706
2021/05/13 01:15:00.000,n,189,1.8,1.44,2.16,17.1,86.1,1015.32,0,0,0,0,0.035706
2021/05/13 01:16:00.007,n,240,1.08,0.72,2.16,17.1,86.2,1015.32,0,0,0,0,0.035706
2021/05/13 01:17:00.005,n,102,1.44,1.08,1.44,17.1,86.1,1015.32,0,0,0,0,0.033989
2021/05/13 01:18:00.002,n,250,1.8,1.8,2.52,17.1,86.1,1015.32,0,0,0,0,0.034866
2021/05/13 01:19:00.000,n,129,0.72,0.72,0.72,17.1,86.1,1015.22,0,0,0,0,0.033989
2021/05/13 01:20:00.012,n,115,0.72,0.36,0.72,17.1,86.1,1015.22,0,0,0,0,0.033112
2021/05/13 01:21:00.009,n,229,2.88,2.52,3.6,17.1,86.2,1015.22,0,0,0,0,0.035706
2021/05/13 01:22:00.000,n,284,3.6,3.24,4.32,17.1,86.2,1015.22,0,0,0,0,0.034866
2021/05/13 01:23:00.000,n,250,1.8,1.44,1.8,17.1,86.3,1015.22,0,0,0,0,0.035706
2021/05/13 01:24:00.000,n,272,4.32,3.6,4.68,17.1,86.2,1015.22,0,0,0,0,0.036621
2021/05/13 01:25:00.000,n,242,4.32,3.96,5.04,17.1,86.2,1015.22,0,0,0,0,0.038338
2021/05/13 01:26:00.000,n,253,4.32,3.6,5.04,17.1,86.2,1015.22,0,0,0,0,0.034866
2021/05/13 01:27:00.008,n,244,3.6,3.24,3.6,17.1,86,1015.22,0,0,0,0,0.03746
2021/05/13 01:28:00.004,n,270,3.24,2.88,3.96,17.1,86.1,1015.22,0,0,0,0,0.036621
2021/05/13 01:29:00.003,n,264,4.32,4.32,4.68,17.1,86.1,1015.22,0,0,0,0,0.034866
2021/05/13 01:30:00.000,n,265,3.96,3.6,3.96,17.1,85.9,1015.22,0,0,0,0,0.032272
2021/05/13 01:31:00.000,n,269,3.96,3.6,3.96,17.1,85.8,1015.12,0,0,0,0,0.03746
2021/05/13 01:32:00.000,n,267,4.32,3.96,4.68,17.1,85.8,1015.12,0,0,0,0,0.036621
2021/05/13 01:33:00.000,n,275,5.4,4.68,5.4,17.1,85.9,1015.12,0,0,0,0,0.039215
2021/05/13 01:34:00.007,n,249,3.6,3.24,3.96,17.1,85.9,1015.12,0,0,0,0,0.038338
2021/05/13 01:35:00.004,n,256,2.52,2.52,2.88,17.1,85.9,1015.12,0,0,0,0,0.036621
2021/05/13 01:36:00.001,n,236,2.52,2.52,2.88,17.1,85.9,1015.02,0,0,0,0,0.03746
2021/05/13 01:37:00.000,n,229,1.44,1.08,2.16,17.1,85.9,1015.02,0,0,0,0,0.03746
2021/05/13 01:38:00.011,n,228,1.44,1.08,2.16,17.1,85.9,1015.02,0,0,0,0,0.040054
2021/05/13 01:39:00.009,n,186,2.16,2.16,2.52,17.2,86,1014.92,0,0,0,0,0.040932
2021/05/13 01:40:00.000,n,174,4.32,3.6,4.68,17.2,85.9,1014.92,0,0,0,0,0.039215
2021/05/13 01:41:00.003,n,177,4.32,3.96,5.04,17.2,85.9,1014.92,0,0,0,0,0.040054
2021/05/13 01:42:00.000,n,165,3.6,3.24,3.96,17.2,85.9,1014.92,0,0,0,0,0.040054
2021/05/13 01:43:00.000,n,180,2.88,2.52,3.6,17.2,85.9,1014.92,0,0,0,0,0.042686
2021/05/13 01:44:00.000,n,208,1.44,1.08,2.16,17.2,85.9,1014.82,0,0,0,0,0.039215
2021/05/13 01:45:00.007,n,140,1.8,1.8,2.16,17.2,85.9,1014.82,0,0,0,0,0.043564
2021/05/13 01:46:00.004,n,257,1.44,1.08,1.8,17.2,85.9,1014.82,0,0,0,0,0.041847
2021/05/13 01:47:00.003,n,273,2.16,1.44,2.52,17.2,85.9,1014.82,0,0,0,0,0.040932
2021/05/13 01:48:00.000,n,324,1.44,1.08,1.8,17.3,86.2,1014.82,0,0,0,0,0.042686
2021/05/13 01:49:00.000,n,266,3.24,2.16,3.96,17.3,86.1,1014.82,0,0,0,0,0.041847
2021/05/13 01:50:00.000,n,217,2.52,2.16,2.88,17.3,85.9,1014.82,0,0,0,0,0.041847
2021/05/13 01:51:00.000,n,101,0.72,0.36,1.08,17.3,85.9,1014.82,0,0,0,0,0.04528
2021/05/13 01:52:00.005,n,272,2.16,1.8,2.16,17.3,85.9,1014.82,0,0,0,0,0.041847
2021/05/13 01:53:00.003,n,206,1.08,0.72,1.08,17.4,85.9,1014.82,0,0,0,0,0.041847
2021/05/13 01:54:00.000,n,175,2.16,1.8,2.52,17.3,85.8,1014.82,0,0,0,0,0.042686
2021/05/13 01:55:00.012,n,217,1.44,0.36,2.88,17.3,85.8,1014.72,0,0,0,0,0.044441
2021/05/13 01:56:00.009,n,183,0.36,0.36,0.72,17.3,85.7,1014.72,0,0,0,0,0.046196
2021/05/13 01:57:00.006,n,256,0.36,0,1.08,17.3,85.7,1014.72,0,0,0,0,0.043564
2021/05/13 01:58:00.000,n,193,1.8,1.8,1.8,17.3,85.8,1014.72,0,0,0,0,0.044441
2021/05/13 01:59:00.001,n,151,2.16,2.16,2.16,17.3,85.8,1014.62,0,0,0,0,0.046196
2021/05/13 02:00:00.000,n,184,2.16,2.16,2.52,17.3,85.8,1014.62,0,0,0,0,0.047913
2021/05/13 02:01:00.000,n,160,1.8,1.44,2.16,17.3,85.8,1014.62,0,0,0,0,0.050545
2021/05/13 02:02:00.000,n,159,5.04,4.68,5.04,17.3,85.7,1014.52,0,0,0,0,0.046196
2021/05/13 02:03:00.005,n,154,3.6,3.24,3.96,17.3,85.7,1014.52,0,0,0,0,0.044441
2021/05/13 02:04:00.003,n,181,3.6,2.88,3.96,17.3,85.7,1014.52,0,0,0,0,0.04528
2021/05/13 02:05:00.000,n,179,2.88,2.16,3.96,17.3,85.7,1014.52,0,0,0,0,0.047035
2021/05/13 02:06:00.014,n,154,3.6,3.24,3.96,17.3,85.8,1014.52,0,0,0,0,0.04528
2021/05/13 02:07:00.000,n,159,4.68,2.88,5.04,17.3,85.8,1014.52,0,0,0,0,0.046196
2021/05/13 02:08:00.000,n,210,1.44,0.36,3.24,17.3,85.8,1014.52,0,0,0,0,0.047035
2021/05/13 02:09:00.005,n,188,1.44,0.72,2.16,17.3,85.9,1014.42,0,0,0,0,0.047035
2021/05/13 02:10:00.002,n,178,3.96,3.6,4.68,17.3,86,1014.42,0,0,0,0,0.047913
2021/05/13 02:11:00.000,n,274,2.52,1.8,3.24,17.3,86,1014.42,0,0,0,0,0.046196
2021/05/13 02:12:00.000,n,172,4.68,3.96,5.04,17.3,85.9,1014.42,0,0,0,0,0.050545
2021/05/13 02:13:00.009,n,162,5.76,2.88,7.56,17.3,85.9,1014.32,0,0,0,0,0.051422
2021/05/13 02:14:00.007,n,170,1.08,0.72,1.8,17.3,86,1014.42,0,0,0,0,0.050545
2021/05/13 02:15:00.004,n,171,1.44,1.44,1.8,17.3,86,1014.42,0,0,0,0,0.049629
2021/05/13 02:16:00.001,n,198,0.72,0,1.44,17.3,86.1,1014.42,0,0,0,0,0.050545
2021/05/13 02:17:00.000,n,165,2.52,2.16,3.24,17.3,86.1,1014.42,0,0,0,0,0.051422
2021/05/13 02:18:00.000,n,177,3.6,2.88,5.04,17.3,85.8,1014.42,0,0,0,0,0.047913
2021/05/13 02:19:00.000,n,139,2.52,1.08,3.24,17.3,85.9,1014.32,0,0,0,0,0.047913
2021/05/13 02:20:00.006,n,147,3.6,3.24,3.96,17.3,85.9,1014.32,0,0,0,0,0.049629
2021/05/13 02:21:00.003,n,176,4.68,3.96,5.76,17.2,85.8,1014.32,0,0,0,0,0.046196
2021/05/13 02:22:00.000,n,220,2.88,1.8,3.96,17.2,85.7,1014.32,0,0,0,0,0.049629
2021/05/13 02:23:00.013,n,261,1.08,0.72,1.44,17.2,85.8,1014.32,0,0,0,0,0.04879
2021/05/13 02:24:00.010,n,232,1.8,1.44,2.16,17.2,85.9,1014.32,0,0,0,0,0.047913
2021/05/13 02:25:00.000,n,201,3.6,2.52,4.32,17.2,85.8,1014.32,0,0,0,0,0.049629
2021/05/13 02:26:00.003,n,188,3.96,2.88,4.68,17.2,85.9,1014.32,0,0,0,0,0.050545
2021/05/13 02:27:00.000,n,207,2.88,2.52,3.6,17.2,85.9,1014.32,0,0,0,0,0.047035
2021/05/13 02:28:00.000,n,144,2.16,0.72,3.6,17.2,86.1,1014.32,0,0,0,0,0.050545
2021/05/13 02:29:00.000,n,259,2.52,1.44,3.6,17.2,86,1014.32,0,0,0,0,0.047913
2021/05/13 02:30:00.007,n,114,2.52,2.16,2.88,17.2,86.1,1014.32,0,0,0,0,0.04879
2021/05/13 02:31:00.004,n,165,1.44,0.72,2.52,17.2,86.1,1014.32,0,0,0,0,0.047035
2021/05/13 02:32:00.001,n,141,4.32,3.96,4.68,17.2,86,1014.32,0,0,0,0,0.049629
2021/05/13 02:33:00.016,n,234,2.52,2.16,3.6,17.2,86.1,1014.32,0,0,0,0,0.049629
2021/05/13 02:34:00.000,n,175,2.16,1.08,3.24,17.2,86.3,1014.22,0,0,0,0,0.049629
2021/05/13 02:35:00.000,n,234,3.6,3.6,4.32,17.2,86.1,1014.22,0,0,0,0,0.046196
2021/05/13 02:36:00.000,n,152,2.52,1.8,3.24,17.2,86.1,1014.22,0,0,0,0,0.047035
2021/05/13 02:37:00.005,n,108,1.08,0.72,1.08,17.2,86.2,1014.22,0,0,0,0,0.047913
2021/05/13 02:38:00.003,n,113,2.16,1.44,2.88,17.2,86.3,1014.32,0,0,0,0,0.04879
2021/05/13 02:39:00.000,n,250,3.96,3.6,3.96,17.3,86.2,1014.32,0,0,0,0,0.04879
2021/05/13 02:40:00.012,n,181,2.88,2.52,2.88,17.3,86.2,1014.32,0,0,0,0,0.043564
2021/05/13 02:41:00.009,n,278,1.44,1.08,1.8,17.2,86.2,1014.42,0,0,0,0,0.049629
2021/05/13 02:42:00.006,n,265,4.32,3.96,5.04,17.2,86.1,1014.32,0,0,0,0,0.04879
2021/05/13 02:43:00.000,n,246,4.32,3.96,4.68,17.2,86.2,1014.32,0,0,0,0,0.023499
2021/05/13 02:44:00.000,n,269,5.04,2.52,6.48,17.2,86.2,1014.32,0,0,0,0,0.030479
2021/05/13 02:45:00.000,n,264,5.04,4.68,5.4,17.2,86.1,1014.32,0,0,0,0,0.030479
2021/05/13 02:46:00.000,n,260,3.6,3.6,3.6,17.2,86.1,1014.32,0,0,0,0,0.029602
2021/05/13 02:47:00.008,n,215,3.24,2.16,3.6,17.2,86.2,1014.42,0,0,0,0,0.028725
2021/05/13 02:48:00.005,n,251,5.4,4.68,6.12,17.2,86.1,1014.42,0,0,0,0,0.030479
2021/05/13 02:49:00.002,n,279,3.96,3.24,4.68,17.3,86.5,1014.42,0,0,0,0,0.029602
2021/05/13 02:50:00.000,n,162,2.16,1.44,2.88,17.3,86.3,1014.42,0,0,0,0,0.029602
2021/05/13 02:51:00.012,n,292,1.8,1.44,2.16,17.3,86.3,1014.32,0,0,0,0,0.021782
2021/05/13 02:52:00.000,n,271,4.68,3.96,5.76,17.3,86.3,1014.32,0,0,0,0,0.033073
2021/05/13 02:53:00.000,n,227,3.24,2.16,4.32,17.3,86.2,1014.32,0,0,0,0,0.027008
2021/05/13 02:54:00.004,n,287,4.68,2.88,5.4,17.3,86.3,1014.32,0,0,0,0,0.032234
2021/05/13 02:55:00.001,n,266,3.6,2.88,4.68,17.3,86.1,1014.32,0,0,0,0,0.031357
2021/05/13 02:56:00.000,n,290,4.32,2.88,6.12,17.3,86.2,1014.32,0,0,0,0,0.030479
2021/05/13 02:57:00.000,n,247,7.92,5.04,9,17.3,86,1014.42,0,0,0,0,0.027847
2021/05/13 02:58:00.009,n,271,4.68,3.6,5.4,17.2,85.9,1014.42,0,0,0,0,0.033073
2021/05/13 02:59:00.006,n,269,3.96,3.24,4.68,17.2,86.1,1014.32,0,0,0,0,0.033073
2021/05/13 03:00:00.003,n,231,3.96,2.88,5.4,17.2,86,1014.32,0,0,0,0,0.029602
2021/05/13 03:01:00.001,n,252,6.12,5.76,7.2,17.2,85.9,1014.32,0,0,0,0,0.027847
2021/05/13 03:02:00.000,n,289,4.68,3.96,6.12,17.2,86,1014.32,0,0,0,0,0.029602
2021/05/13 03:03:00.000,n,226,2.52,1.8,2.88,17.2,85.9,1014.22,0,0,0,0,0.027847
2021/05/13 03:04:00.000,n,250,2.16,1.8,3.24,17.2,86,1014.22,0,0,0,0,0.031357
2021/05/13 03:05:00.005,n,250,4.32,4.32,4.68,17.2,86,1014.22,0,0,0,0,0.029602
2021/05/13 03:06:00.003,n,246,5.4,5.04,6.48,17.2,85.9,1014.22,0,0,0,0,0.031357
2021/05/13 03:07:00.000,n,245,3.24,2.52,4.32,17.2,85.9,1014.32,0,0,0,0,0.032234
2021/05/13 03:08:00.012,n,238,2.16,1.8,2.52,17.2,86.3,1014.32,0,0,0,0,0.030479
2021/05/13 03:09:00.010,n,280,3.6,2.88,4.32,17.2,86.3,1014.32,0,0,0,0,0.030479
2021/05/13 03:10:00.000,n,253,2.16,1.8,2.88,17.2,86.5,1014.32,0,0,0,0,0.031357
2021/05/13 03:11:00.000,n,282,3.24,2.88,3.96,17.3,86.6,1014.42,0,0,0,0,0.029602
2021/05/13 03:12:00.000,n,196,1.8,1.08,1.8,17.3,86.2,1014.42,0,0,0,0,0.032234
2021/05/13 03:13:00.000,n,226,3.24,2.52,3.96,17.3,86.1,1014.32,0,0,0,0,0.028725
2021/05/13 03:14:00.000,n,187,1.8,1.44,2.16,17.2,86,1014.32,0,0,0,0,0.030479
2021/05/13 03:15:00.007,n,153,1.8,1.08,2.16,17.2,86.1,1014.32,0,0,0,0,0.023499
2021/05/13 03:16:00.005,n,203,0.36,0.36,0.72,17.2,86.1,1014.32,0,0,0,0,0.029602
2021/05/13 03:17:00.002,n,263,1.44,1.08,2.16,17.2,86.1,1014.32,0,0,0,0,0.031357
2021/05/13 03:18:00.015,n,153,1.8,1.08,2.88,17.2,86.2,1014.32,0,0,0,0,0.033073
2021/05/13 03:19:00.000,n,196,0.72,0,1.08,17.2,86.3,1014.32,0,0,0,0,0.033073
2021/05/13 03:20:00.000,n,273,0.72,0.36,1.44,17.3,86.2,1014.32,0,0,0,0,0.033073
2021/05/13 03:21:00.000,n,180,2.16,1.8,2.16,17.2,86.2,1014.32,0,0,0,0,0.030479
2021/05/13 03:22:00.006,n,155,3.6,3.24,3.96,17.3,86.3,1014.32,0,0,0,0,0.029602
2021/05/13 03:23:00.003,n,143,4.68,3.96,5.04,17.3,86.3,1014.22,0,0,0,0,0.028725
2021/05/13 03:24:00.000,n,162,5.04,4.68,5.4,17.3,86.3,1014.22,0,0,0,0,0.033951
2021/05/13 03:25:00.000,n,218,3.24,2.52,3.6,17.3,86.3,1014.32,0,0,0,0,0.032234
2021/05/13 03:26:00.011,n,159,1.8,1.8,2.16,17.3,86.3,1014.22,0,0,0,0,0.029602
2021/05/13 03:27:00.008,n,120,1.08,0.36,1.8,17.3,86.3,1014.22,0,0,0,0,0.033073
2021/05/13 03:28:00.000,n,69,1.8,1.08,1.8,17.3,86.4,1014.22,0,0,0,0,0.032234
2021/05/13 03:29:00.001,n,204,2.88,2.52,3.6,17.3,86.4,1014.22,0,0,0,0,0.031357
2021/05/13 03:30:00.000,n,172,1.8,1.8,1.8,17.3,86.3,1014.22,0,0,0,0,0.025253
2021/05/13 03:31:00.000,n,166,6.48,5.4,7.56,17.3,86.2,1014.22,0,0,0,0,0.032234
2021/05/13 03:32:00.000,n,89,1.08,0.36,1.44,17.3,86.2,1014.12,0,0,0,0,0.033073
2021/05/13 03:33:00.006,n,168,4.32,3.24,5.4,17.3,86.1,1014.12,0,0,0,0,0.028725
2021/05/13 03:34:00.004,n,239,1.8,1.44,1.8,17.3,86.2,1014.12,0,0,0,0,0.032234
2021/05/13 03:35:00.001,n,211,2.16,1.8,2.52,17.3,86.4,1014.12,0,0,0,0,0.030479
2021/05/13 03:36:00.014,n,211,2.52,2.16,3.24,17.3,86.3,1014.12,0,0,0,0,0.032234
2021/05/13 03:37:00.000,n,170,2.88,2.16,3.6,17.3,86.1,1014.12,0,0,0,0,0.032234
2021/05/13 03:38:00.000,n,176,5.76,4.68,7.2,17.3,86,1014.12,0,0,0,0,0.031357
2021/05/13 03:39:00.005,n,202,3.24,2.88,3.6,17.3,86.1,1014.12,0,0,0,0,0.029602
2021/05/13 03:40:00.002,n,181,2.16,1.8,2.52,17.3,86.1,1014.12,0,0,0,0,0.031357
2021/05/13 03:41:00.000,n,150,3.96,3.6,4.68,17.3,86.1,1014.12,0,0,0,0,0.030479
2021/05/13 03:42:00.000,n,168,5.04,4.32,5.76,17.3,86.1,1014.12,0,0,0,0,0.027008
2021/05/13 03:43:00.009,n,196,1.44,1.44,1.8,17.3,86.1,1014.12,0,0,0,0,0.027847
2021/05/13 03:44:00.007,n,134,0.72,0.36,0.72,17.3,86.2,1014.12,0,0,0,0,0.030479
2021/05/13 03:45:00.005,n,158,5.4,4.32,6.48,17.3,86.2,1014.02,0,0,0,0,0.030479
2021/05/13 03:46:00.000,n,187,5.76,5.04,6.48,17.3,86.2,1014.02,0,0,0,0,0.030479
2021/05/13 03:47:00.001,n,134,2.16,1.44,3.24,17.3,86.2,1014.02,0,0,0,0,0.025253
2021/05/13 03:48:00.000,n,256,4.32,2.52,5.4,17.3,86.2,1014.12,0,0,0,0,0.032234
2021/05/13 03:49:00.000,n,201,2.16,1.08,3.24,17.3,86.2,1014.12,0,0,0,0,0.031357
2021/05/13 03:50:00.000,n,160,0.36,0,0.36,17.3,86.3,1014.12,0,0,0,0,0.029602
2021/05/13 03:51:00.006,n,95,1.8,1.44,1.8,17.3,86.3,1014.12,0,0,0,0,0.027847
2021/05/13 03:52:00.003,n,302,0.36,0,0.36,17.3,86.3,1014.12,0,0,0,0,0.031357
2021/05/13 03:53:00.000,n,189,3.6,2.88,6.12,17.3,86.3,1014.12,0,0,0,0,0.031357
2021/05/13 03:54:00.014,n,174,1.8,1.44,1.8,17.3,86.4,1014.12,0,0,0,0,0.029602
2021/05/13 03:55:00.000,n,203,6.12,5.4,7.56,17.3,86.3,1014.12,0,0,0,0,0.030479
2021/05/13 03:56:00.000,n,207,5.4,4.68,6.12,17.3,86.3,1014.12,0,0,0,0,0.031357
2021/05/13 03:57:00.000,n,163,6.84,6.12,7.2,17.3,86.3,1014.02,0,0,0,0,0.031357
2021/05/13 03:58:00.001,n,167,5.04,4.32,6.12,17.3,86.3,1014.02,0,0,0,0,0.030479
2021/05/13 03:59:00.000,n,105,1.08,0.72,1.8,17.3,86.3,1014.02,0,0,0,0,0.032234
2021/05/13 04:00:00.000,n,172,4.32,3.6,5.4,17.3,86.3,1014.02,0,0,0,0,0.030479
2021/05/13 04:01:00.010,n,159,3.6,2.16,4.68,17.3,86.3,1014.02,0,0,0,0,0.029602
2021/05/13 04:02:00.007,n,154,3.24,2.52,3.96,17.3,86.4,1013.92,0,0,0,0,0.030479
2021/05/13 04:03:00.005,n,163,5.04,5.04,5.4,17.3,86.4,1013.92,0,0,0,0,0.028725
2021/05/13 04:04:00.000,n,221,1.44,1.08,1.8,17.3,86.4,1013.92,0,0,0,0,0.030479
2021/05/13 04:05:00.000,n,153,2.52,2.52,3.24,17.3,86.4,1013.92,0,0,0,0,0.030479
2021/05/13 04:06:00.000,n,132,1.44,0.72,1.8,17.3,86.4,1013.92,0,0,0,0,0.027847
2021/05/13 04:07:00.000,n,102,1.44,0.36,2.16,17.3,86.4,1013.92,0,0,0,0,0.033951
2021/05/13 04:08:00.007,n,154,3.6,3.24,3.96,17.3,86.5,1014.02,0,0,0,0,0.025253
2021/05/13 04:09:00.005,n,135,3.24,2.88,3.96,17.3,86.5,1014.02,0,0,0,0,0.029602
2021/05/13 04:10:00.001,n,227,3.96,3.24,5.04,17.3,86.5,1014.02,0,0,0,0,0.030479
2021/05/13 04:11:00.014,n,158,2.52,2.16,2.88,17.3,86.6,1014.02,0,0,0,0,0.027008
2021/05/13 04:12:00.011,n,162,5.4,2.52,6.84,17.3,86.6,1014.02,0,0,0,0,0.031357
2021/05/13 04:13:00.000,n,170,1.8,1.44,2.16,17.3,86.6,1014.02,0,0,0,0,0.029602
2021/05/13 04:14:00.000,n,142,1.8,1.44,1.8,17.3,86.6,1014.02,0,0,0,0,0.030479
2021/05/13 04:15:00.003,n,128,2.52,2.16,3.24,17.3,86.5,1014.02,0,0,0,0,0.025253
2021/05/13 04:16:00.000,n,114,1.08,0.72,1.8,17.3,86.5,1014.02,0,0,0,0,0.027008
2021/05/13 04:17:00.000,n,199,2.16,1.8,2.88,17.3,86.6,1014.02,0,0,0,0,0.027008
2021/05/13 04:18:00.000,n,217,1.44,0.72,2.16,17.3,86.6,1014.02,0,0,0,0,0.025253
2021/05/13 04:19:00.008,n,210,2.88,1.8,3.96,17.3,86.5,1014.02,0,0,0,0,0.025253
2021/05/13 04:20:00.006,n,210,0.36,0.36,0.72,17.3,86.5,1014.02,0,0,0,0,0.028725
2021/05/13 04:21:00.003,n,246,1.44,1.08,1.44,17.3,86.5,1014.02,0,0,0,0,0.027008
2021/05/13 04:22:00.001,n,181,2.16,1.44,3.24,17.3,86.5,1014.12,0,0,0,0,0.026131
2021/05/13 04:23:00.000,n,178,1.08,0.72,1.44,17.3,86.5,1014.12,0,0,0,0,0.025253
2021/05/13 04:24:00.000,n,220,1.08,0.36,2.16,17.3,86.5,1014.12,0,0,0,0,0.024376
2021/05/13 04:25:00.000,n,227,0.72,0.36,1.08,17.3,86.5,1014.12,0,0,0,0,0.026131
2021/05/13 04:26:00.006,n,250,1.8,1.08,2.16,17.3,86.5,1014.12,0,0,0,0,0.027008
2021/05/13 04:27:00.003,n,255,3.24,2.88,3.6,17.3,86.5,1014.12,0,0,0,0,0.026131
2021/05/13 04:28:00.000,n,166,4.32,2.88,5.4,17.3,86.6,1014.12,0,0,0,0,0.027847
2021/05/13 04:29:00.013,n,169,6.12,4.68,6.84,17.3,86.6,1014.12,0,0,0,0,0.025253
2021/05/13 04:30:00.011,n,274,3.96,2.52,5.04,17.3,86.6,1014.12,0,0,0,0,0.025253
2021/05/13 04:31:00.000,n,217,2.52,2.16,2.88,17.3,86.7,1014.12,0,0,0,0,0.025253
2021/05/13 04:32:00.000,n,160,1.44,0.72,2.52,17.3,86.7,1014.12,0,0,0,0,0.032196
2021/05/13 04:33:00.002,n,206,3.96,3.24,4.68,17.3,86.7,1014.02,0,0,0,0,0.036545
2021/05/13 04:34:00.000,n,158,7.56,6.84,8.28,17.3,86.7,1014.02,0,0,0,0,0.033951
2021/05/13 04:35:00.000,n,158,3.6,1.8,5.76,17.3,86.7,1014.02,0,0,0,0,0.039177
2021/05/13 04:36:00.010,n,181,6.84,6.48,7.56,17.3,86.7,1014.02,0,0,0,0,0.031357
2021/05/13 04:37:00.008,n,168,5.04,3.6,6.48,17.3,86.6,1014.02,0,0,0,0,0.033073
2021/05/13 04:38:00.005,n,186,1.08,0.72,1.44,17.3,86.6,1014.02,0,0,0,0,0.033951
2021/05/13 04:39:00.003,n,110,2.16,0.72,2.52,17.3,86.7,1014.02,0,0,0,0,0.037422
2021/05/13 04:40:00.000,n,64,1.8,1.44,2.52,17.3,86.9,1014.02,0,0,0,0,0.034828
2021/05/13 04:41:00.000,n,101,2.52,1.8,3.6,17.3,86.9,1014.02,0,0,0,0,0.037422
2021/05/13 04:42:00.000,n,225,4.32,3.24,5.04,17.3,86.8,1014.02,0,0,0,0,0.036545
2021/05/13 04:43:00.000,n,210,1.8,0.72,3.6,17.3,86.7,1014.02,0,0,0,0,0.033951
2021/05/13 04:44:00.005,n,228,2.88,1.44,3.6,17.3,86.7,1014.02,0,0,0,0,0.036545
2021/05/13 04:45:00.002,n,115,1.08,0.36,2.88,17.3,86.7,1014.02,0,0,0,0,0.033951
2021/05/13 04:46:00.000,n,344,3.24,1.8,4.32,17.3,86.8,1014.02,0,0,0,0,0.036545
2021/05/13 04:47:00.012,n,179,2.16,1.8,2.88,17.3,86.7,1014.02,0,0,0,0,0.033951
2021/05/13 04:48:00.009,n,237,1.8,1.44,2.52,17.3,86.7,1014.02,0,0,0,0,0.033951
2021/05/13 04:49:00.000,n,285,2.16,1.44,2.52,17.3,86.9,1014.02,0,0,0,0,0.033951
2021/05/13 04:50:00.003,n,252,4.32,3.96,5.04,17.3,86.8,1014.02,0,0,0,0,0.033951
2021/05/13 04:51:00.000,n,265,5.76,5.4,6.48,17.3,86.8,1014.02,0,0,0,0,0.034828
2021/05/13 04:52:00.000,n,258,5.76,5.04,6.84,17.3,86.7,1014.12,0,0,0,0,0.033073
2021/05/13 04:53:00.000,n,243,5.4,4.68,6.48,17.3,86.8,1014.12,0,0,0,0,0.032196
2021/05/13 04:54:00.008,n,255,2.16,1.8,3.24,17.3,86.6,1014.12,0,0,0,0,0.028763
2021/05/13 04:55:00.005,n,245,3.96,3.6,4.32,17.3,86.5,1014.12,0,0,0,0,0.032196